#timestamp,LO_Frequency,Hit,StdDev 
1589536815.1,286046995.2,N
1589536816.0,286046995.2,N
1589536835.8,286046998.7,N
1589536855.7,286046998.8,N
1589536875.5,286047000.7,N
1589536895.3,286046998.1,N
1589536915.2,286046996.7,N
1589536935.0,286046996.8,N
1589536935.9,286046996.8,N
1589536955.8,286046998.9,N
1589536975.6,286047002.0,N
1589536995.4,286046996.9,N
1589537015.3,286047005.2,N
1589537035.1,286047000.1,N
1589537055.8,286046998.1,N
1589537075.7,286046997.1,N
1589537095.5,286047001.2,N
1589537115.4,286047000.9,N
1589537135.2,286047004.4,N
1589537155.0,286047000.2,N
1589537155.9,286047000.2,N
1589537175.8,286047001.6,N
1589537195.6,286046999.8,N
1589537215.5,286046999.7,N
1589537235.3,286046998.6,N
1589537255.1,286047000.8,N
1589537275.9,286047000.9,N
1589537295.7,286047000.5,N
1589537315.5,286046997.2,N
1589537335.4,286046998.0,N
1589537355.2,286047001.0,N
1589537375.1,286047001.1,N
1589537376.0,286047001.1,N
1589537395.8,286047001.0,N
1589537415.6,286046999.2,N
1589537435.5,286046996.8,N
1589537455.3,286046997.1,N
1589537475.2,286046999.1,N
1589537495.9,286046996.6,N
1589537515.7,286046997.7,N
1589537535.6,286046999.2,N
1589537555.4,286047002.8,N
1589537575.3,286047003.2,N
1589537595.1,286047002.1,N
1589537596.0,286047002.1,N
1589537615.8,286046998.5,N
1589537635.7,286046998.7,N
1589537655.5,286046998.1,N
1589537675.3,286047002.7,N
1589537695.2,286047000.9,N
1589537715.0,286047004.4,N
1589537715.9,286047004.4,N
1589537735.8,286047006.0,N
1589537755.6,286047006.0,N
1589537775.4,286047005.2,N
1589537795.3,286047003.8,N
1589537815.1,286047002.3,N
1589537835.8,286047000.4,N
1589537855.7,286047000.8,N
1589537875.5,286047001.3,N
1589537895.4,286047004.3,N
1589537915.2,286047002.0,N
1589537935.0,286047000.5,N
1589537935.9,286047000.5,N
1589537955.8,286047002.6,N
1589537975.6,286047002.0,N
1589537995.5,286046999.7,N
1589538015.3,286047005.3,N
1589538035.1,286047006.2,N
1589538055.9,286047005.9,N
1589538075.7,286047005.1,N
1589538095.5,286047003.1,N
1589538115.4,286047005.6,N
1589538135.2,286047004.3,N
1589538155.1,286047004.2,N
1589538156.0,286047004.2,N
1589538175.8,286047004.2,N
1589538195.6,286047004.2,N
1589538215.5,286047004.0,N
1589538235.3,286047001.6,N
1589538255.2,286046999.7,N
1589538275.9,286047000.6,N
1589538295.7,286047000.0,N
1589538315.6,286047000.1,N
1589538335.4,286047000.2,N
1589538355.3,286047000.4,N
1589538375.1,286047002.8,N
1589538376.0,286047002.8,N
1589538395.8,286047002.8,N
1589538415.7,286047001.1,N
1589538435.5,286046996.6,N
1589538455.3,286046999.5,N
1589538475.2,286046995.1,N
1589538495.0,286046999.3,N
1589538495.9,286046999.3,N
1589538515.8,286046997.5,N
1589538535.6,286046995.0,N
1589538555.4,286046995.0,N
1589538575.3,286046995.7,N
1589538595.1,286046996.3,N
1589538615.9,286046993.3,N
1589538635.7,286046993.3,N
1589538655.5,286046996.3,N
1589538675.4,286046996.0,N
1589538695.2,286046995.4,N
1589538715.1,286046995.9,N
1589538716.0,286046995.9,N
1589538735.8,286046994.0,N
1589538755.6,286046993.5,N
1589538775.5,286046994.2,N
1589538795.3,286046993.3,N
1589538815.2,286046993.3,N
1589538835.9,286046996.1,N
1589538855.7,286046994.1,N
1589538875.6,286046996.1,N
1589538895.4,286046995.4,N
1589538915.2,286046993.9,N
1589538935.1,286046993.6,N
1589538936.0,286046993.6,N
1589538955.8,286046994.4,N
1589538975.7,286046995.6,N
1589538995.5,286046997.8,N
1589539015.3,286046993.3,Y
1589539035.2,286046997.2,P
1589539055.0,286046996.8,P
1589539055.9,286047011.9,P
1589539075.8,286046997.3,N
1589539095.6,286046996.8,N
1589539115.4,286046997.0,N
1589539135.3,286046995.5,N
1589539155.1,286046996.7,N
1589539175.9,286047000.8,N
1589539195.7,286046996.7,N
1589539215.5,286046996.7,N
1589539235.4,286046996.7,N
1589539255.2,286046999.3,N
1589539275.1,286046997.4,N
1589539276.0,286046997.4,N
1589539295.8,286046999.0,N
1589539315.6,286046999.3,N
1589539335.5,286046994.9,N
1589539355.3,286046997.6,N
1589539375.1,286046997.8,N
1589539395.9,286046996.6,N
1589539415.7,286046997.4,N
1589539435.6,286046998.5,N
1589539455.4,286046998.7,N
1589539475.2,286047001.0,N
1589539495.1,286047001.1,N
1589539496.0,286047001.1,N
1589539515.8,286047002.7,N
1589539535.7,286047002.5,N
1589539555.5,286046999.7,N
1589539575.3,286046998.6,N
1589539595.2,286046998.9,N
1589539615.0,286047000.1,N
1589539615.9,286047000.1,N
1589539635.8,286046998.2,N
1589539655.6,286046999.9,N
1589539675.4,286047000.2,N
1589539695.3,286047001.0,N
1589539715.1,286047000.2,N
1589539735.8,286047002.5,N
1589539755.7,286046998.2,N
1589539775.5,286046998.6,N
1589539795.4,286047002.8,N
1589539815.2,286047000.9,N
1589539835.0,286047002.8,N
1589539835.9,286047002.8,N
1589539855.8,286047001.7,N
1589539875.6,286047004.4,N
1589539895.5,286047001.7,N
1589539915.3,286047003.4,N
1589539935.1,286047004.0,N
1589539955.9,286047001.8,N
1589539975.7,286047000.1,N
1589539995.6,286047000.8,N
1589540015.4,286047001.0,N
1589540035.2,286047001.1,N
1589540055.1,286047002.7,N
1589540056.0,286047002.7,N
1589540075.8,286047000.8,N
1589540095.7,286047002.1,N
1589540115.5,286047003.8,N
1589540135.3,286047003.4,N
1589540155.2,286047002.1,N
1589540175.0,286047001.2,N
1589540175.9,286047001.2,N
1589540195.8,286047002.0,N
1589540215.6,286047000.1,N
1589540235.4,286047003.4,N
1589540255.3,286047004.2,N
1589540275.1,286047001.8,N
1589540295.9,286047005.5,Y
1589540315.7,286047003.9,P
1589540335.5,286047003.9,P
1589540355.4,286047001.7,N
1589540375.2,286047000.2,N
1589540395.1,286047002.4,N
1589540396.0,286047002.4,N
